Location: Unspecified
(0.0000°N, 0.0000°E)
Time: 09:22:44
(UTC+00:00)

ISS - Visible Passes

Search period start: 29 March 2015 00:00
Search period end: 08 April 2015 00:00
Orbit: 396 x 406 km, 51.6° (Epoch: 28 March)

Date Brightness Start Highest point End Pass type
(mag) Time Alt. Az. Time Alt. Az. Time Alt. Az.
29 Mar -2.6 19:08:55 10° SSW 19:11:41 35° SE 19:11:41 35° SE visible
30 Mar -0.6 19:52:31 10° W 19:54:46 18° NW 19:54:46 18° NW visible
31 Mar -2.5 18:58:13 10° SW 19:01:25 50° NW 19:04:35 10° NNE visible
02 Apr -0.2 18:48:53 10° W 18:50:49 14° NW 18:52:38 10° NNW visible
04 Apr -3.5 05:27:18 10° NW 05:30:30 72° SW 05:33:42 10° SSE visible
05 Apr -1.7 04:35:39 23° N 04:36:59 33° NE 04:39:56 10° ESE visible
06 Apr -1.8 05:18:45 17° WSW 05:19:40 19° SW 05:21:59 10° S visible
07 Apr -0.6 04:28:55 12° SSE 04:28:55 12° SSE 04:29:13 10° SSE visible
